Location: Brusy
(49.3036°N, 14.0164°E)
Time: 11:29:01
(UTC+00:00)

Daily predictions for brighter satellites

Satellite Brightness Start Highest point End
(mag) Time Altitude Azimuth Time Altitude Azimuth Time Altitude Azimuth
ATLAS 2AS CENTAUR R/B 3.9 15:30:46 10° W 15:37:55 37° NNW 15:44:46 10° NE
Cosmos 2082 Rocket 4.0 15:36:19 10° ESE 15:38:46 13° E 15:41:13 10° ENE
USA 307 3.3 15:36:24 10° W 15:40:37 56° NNW 15:44:51 10° ENE
Cosmos 990 Rocket 4.1 15:37:24 10° NNW 15:42:32 56° ENE 15:47:36 10° SE
NOAA 6 4.4 15:38:12 10° SE 15:43:00 42° ENE 15:47:49 10° N
SeaSat 1 3.7 15:41:35 10° NNE 15:46:05 36° NW 15:50:33 10° WSW
Cosmos 1408 Rocket 3.5 15:42:08 10° N 15:46:30 71° ENE 15:50:52 10° SSE
NOSS 2-1 (C) 3.9 15:43:33 10° WSW 15:46:36 39° NW 15:49:51 10° NNE
SL-16 R/B 4.4 15:48:08 10° NW 15:50:21 12° NNW 15:52:34 10° N
Iridium 2 4.1 15:48:38 10° N 15:52:23 67° W 15:56:05 10° S
Meteor PRIRODA 3.5 15:49:25 10° SSE 15:53:02 75° ENE 15:56:40 10° N
NOSS 3-1 (A) 4.1 15:46:21 10° NW 15:53:41 80° NE 16:02:22 10° SE
Okean O Rocket 3.1 15:51:19 10° E 15:54:07 17° ENE 15:56:54 10° NNE
Cosmos 1743 Rocket 3.8 15:49:56 10° N 15:54:08 46° ENE 15:58:18 10° SSE
USA 234 3.3 15:47:36 10° ESE 15:54:11 87° NNE 16:00:45 10° WNW
NOSS 3-1 (C) 4.4 15:47:03 10° NW 15:54:26 74° SW 16:03:07 10° SSE
USA 276 3.2 15:51:57 10° W 15:54:57 44° SSW 15:57:57 10° SE
ATLAS CENTAUR R/B 2.9 15:51:19 10° W 15:55:06 30° NW 15:59:09 10° NNE
COSMOS 2406 4.2 15:50:52 10° SSE 15:55:43 29° ESE 16:00:34 10° NE
NOSS 2-1 (D) 4.2 15:53:04 10° WSW 15:56:02 33° NW 15:59:14 10° NNE
COSMOS 2455 4.1 15:51:49 10° SSE 15:56:16 22° ESE 16:00:44 10° ENE
NOAA 11 4.5 15:50:52 10° S 15:56:17 74° WSW 16:01:45 10° NNW
NOAA 12 4.1 15:51:45 10° SSE 15:57:04 78° ENE 16:02:25 10° NNW
NOSS 2-2 (D) 4.5 15:55:46 10° NNW 16:00:23 45° NE 16:06:42 10° ESE
Cosmos 1782 4.2 15:57:51 10° SE 16:00:48 20° E 16:03:45 10° NE
NOSS 2-2 (E) 4.4 15:56:09 10° NW 16:01:00 54° NE 16:07:44 10° ESE
Cosmos 1833 Rocket 3.2 15:57:16 10° S 16:02:27 40° ESE 16:07:41 10° NE
USA 308 3.4 15:58:58 10° W 16:03:07 49° NNW 16:06:49 13° ENE
ARGOS 4.1 15:59:30 10° ESE 16:03:48 25° ENE 16:08:07 10° N
Spot 1 4.3 16:00:02 10° NNE 16:04:42 80° ESE 16:09:37 10° SSW
Cosmos 1340 Rocket 2.8 16:05:49 10° NNW 16:09:55 87° E 16:14:00 10° SSE
CZ-4C R/B 4.2 16:06:29 10° N 16:10:17 48° WNW 16:13:52 10° SW
SJ 16-02 3.7 16:06:36 10° NW 16:10:20 28° W 16:14:03 10° SSW
Cosmos 1464 Rocket 4.2 16:03:59 10° S 16:10:22 83° W 16:16:48 10° N
PAYLOAD B 4.5 16:07:37 10° SE 16:12:58 48° ENE 16:18:20 10° N
ISS -3.7 16:10:58 10° WNW 16:14:23 69° NNE 16:17:10 14° E
Cosmos 1606 3.6 16:13:26 10° SSW 16:17:05 48° WNW 16:20:47 10° N
CZ-2D R/B 3.6 16:13:37 10° SE 16:17:12 39° ENE 16:20:48 10° N
Nadezhda 4 Rocket 4.2 16:11:14 10° N 16:17:35 82° W 16:23:54 10° S
Lacrosse 5 rocket 2.2 16:15:08 10° NW 16:18:34 30° NNE 16:20:54 17° ENE
CZ-4B R/B 3.6 16:15:15 10° SE 16:20:13 39° ENE 16:25:09 10° N
Cosmos 2360 4.2 16:14:57 10° NNW 16:20:43 75° ENE 16:26:26 10° SE
Meteor 1-20 Rocket 4.3 16:16:04 10° N 16:21:56 82° ENE 16:27:48 10° SSE
CZ-2C R/B 3.5 16:18:16 10° NE 16:22:37 26° E 16:26:55 10° SSE
Cosmos 1500 Rocket 3.6 16:18:36 10° N 16:23:04 85° W 16:27:29 10° S
CZ-4C R/B 3.1 16:17:29 10° NW 16:24:09 52° NE 16:32:07 10° ESE
Cosmos 540 Rocket 3.9 16:19:29 10° S 16:24:16 42° ESE 16:28:34 13° NE
Cosmos 1818 4.4 16:19:56 10° NNW 16:24:49 31° NNE 16:28:21 16° E
GEOS 3 Rocket 4.3 16:21:01 12° E 16:25:17 35° NNE 16:29:58 10° NNW
CZ-4B R/B 4.0 16:23:30 10° S 16:27:26 48° W 16:31:12 10° NNW
Cosmos 1500 3.4 16:25:05 10° N 16:28:40 42° ENE 16:32:14 10° SSE
SMAP 3.1 16:24:26 10° SSE 16:29:05 83° WSW 16:33:46 10° NNW
USA 305 3.5 16:26:23 10° WNW 16:30:27 44° N 16:32:56 21° ENE
Cosmos 44 Rocket 4.2 16:26:19 10° NNW 16:30:40 29° NE 16:33:01 20° ENE
CZ-2C R/B 4.0 16:26:34 10° S 16:31:18 48° W 16:35:57 10° NNW
MOS 1-B 4.3 16:26:19 10° SSE 16:32:00 63° ENE 16:37:43 10° N
Cosmos 1092 Rocket 4.0 16:25:59 10° N 16:32:23 80° E 16:38:43 10° SSE
Cosmos 468 Rocket 3.9 16:28:47 10° SSW 16:33:56 81° ESE 16:39:10 10° NNE
Cosmos 1898 Rocket 3.7 16:29:02 10° NNW 16:34:19 78° WSW 16:39:31 10° SSE
Cosmos 1805 Rocket 3.4 16:30:18 10° N 16:34:40 77° E 16:38:59 10° SSE
Sich 1 2.9 16:31:03 10° N 16:35:19 61° ENE 16:39:35 10° SSE
Cosmos 1933 3.2 16:33:01 10° S 16:37:03 72° E 16:41:05 10° NNE
Cosmos 1428 Rocket 4.4 16:30:57 10° N 16:37:07 76° E 16:43:15 10° SSE
Cosmos 2360 Rocket 3.8 16:36:30 10° N 16:39:53 16° NNE 16:40:27 16° NE
Cosmos 2221 3.9 16:35:59 10° SW 16:39:59 39° WNW 16:44:03 10° N
PSLV R/B 3.6 16:38:43 10° SSE 16:42:24 87° ENE 16:46:09 10° NNW
deb Chang Zheng 4 3.5 16:47:53 10° SSE 16:52:06 58° ENE 16:56:22 10° N
Cosmos 1627 Rocket 4.5 16:46:51 10° N 16:53:04 86° W 16:59:12 10° S
H-2A R/B 2.0 16:49:52 10° SSE 16:55:03 88° ENE 17:00:08 10° NNW
Meteor 1-14 Rocket 4.3 16:50:46 10° N 16:56:34 64° ENE 17:02:25 10° SSE
Meteor 2-16 Rocket 4.4 16:50:37 10° N 16:56:41 61° ENE 17:02:44 10° SSE
NOSS 2-2 (C) 4.3 16:52:51 10° NW 16:57:53 89° WSW 17:05:01 10° SE
Cosmos 1666 2.7 16:54:43 10° N 16:58:22 50° ENE 17:01:59 10° SSE
ERBS 3.7 16:56:33 10° WNW 16:59:14 24° NNW 16:59:46 23° N
Cosmos 2322 Rocket 3.2 16:54:57 10° NNW 16:59:42 26° NE 17:00:04 26° NE
USA 267 3.4 16:58:13 23° NE 17:02:34 72° NNW 17:09:03 10° WSW
USA 306 3.5 16:58:34 10° WNW 17:02:39 43° N 17:03:44 36° NE
Cosmos 2279 Rocket 4.0 16:56:38 10° S 17:02:41 57° E 17:08:45 10° NNE
Cosmos 1697 Rocket 3.5 16:57:25 10° NW 17:02:52 52° WSW 17:08:17 10° S
SJ-11-01 4.2 16:58:42 10° SSE 17:03:23 65° ENE 17:08:06 10° N
Cosmos 2266 Rocket 4.4 16:59:18 10° N 17:05:18 41° ENE 17:11:19 10° SE
Cosmos 2369 3.9 17:00:36 10° NNW 17:06:20 73° WSW 17:12:01 10° SSE
Cosmos 1980 Rocket 2.2 17:01:10 10° NNW 17:06:52 88° WSW 17:12:31 10° SSE
COSMO-SKYMED 1 2.6 17:05:08 29° NNE 17:07:13 58° E 17:11:30 10° S
MOS 1-B Rocket 3.9 17:01:31 10° NNE 17:07:21 77° ESE 17:13:56 10° S
Meteor 1-5 Rocket 4.2 17:02:45 10° N 17:08:47 71° ENE 17:14:40 10° SSE
Cosmos 1763 Rocket 4.1 17:03:57 10° SW 17:08:54 53° WNW 17:13:31 12° NNE
SL-24 R/B - RUBIN 2 3.7 17:07:26 10° NW 17:12:00 72° SW 17:15:48 13° SSE
Cosmos 841 Rocket 3.3 17:09:05 10° SSW 17:14:15 84° ESE 17:17:15 26° NNE
Cosmos 1812 2.5 17:11:54 10° S 17:15:44 75° E 17:16:32 53° NNE
Cosmos 1937 Rocket 4.5 17:10:38 10° NNW 17:15:46 49° WSW 17:20:51 10° S
Helios 1B 4.4 17:14:16 34° NNE 17:16:04 70° ESE 17:20:23 10° S
SL-16 R/B 2.6 17:11:37 10° NNW 17:16:57 39° NE 17:17:26 38° ENE
Cosmos 1125 Rocket 3.9 17:12:19 10° NNW 17:17:07 39° NE 17:17:07 39° NE
Cosmos 1634 Rocket 4.2 17:11:57 10° SSW 17:18:18 76° W 17:24:40 10° N
Cosmos 1633 Rocket 2.9 17:14:13 10° N 17:18:37 79° E 17:23:00 10° SSE
YAOGAN 1 3.7 17:22:20 29° NNE 17:22:20 29° NNE 17:24:39 10° N
USA 307 3.4 17:16:53 10° WNW 17:21:01 45° N 17:21:20 44° NNE
Cosmos 2082 Rocket 2.1 17:16:12 10° SSW 17:21:52 76° ESE 17:24:27 34° NE
Cosmos 2333 Rocket 3.9 17:21:31 10° N 17:24:11 17° NNE 17:24:11 17° NNE
Okean O Rocket 1.8 17:25:29 10° S 17:29:55 73° WSW 17:34:25 10° NNW
Cosmos 2278 3.7 17:25:05 10° NNW 17:30:50 80° WSW 17:36:31 10° SSE
ATLAS 2AS CENTAUR R/B 4.1 17:24:45 10° NW 17:31:01 27° N 17:33:27 22° NNE
ATLAS CENTAUR R/B 3.9 17:33:10 10° NW 17:35:24 13° NNW 17:36:14 13° N
Cosmos 1655 Rocket 3.9 17:30:12 10° N 17:36:38 69° ENE 17:42:58 10° SSE
Cosmos 1151 Rocket 3.1 17:32:21 10° SSW 17:36:40 75° W 17:38:08 41° N
Cosmos 1782 4.2 17:33:04 10° SW 17:36:50 39° WNW 17:39:44 15° N
COSMOS 2406 3.8 17:34:05 10° SW 17:39:43 55° NW 17:43:05 24° NNE
COSMOS 2455 2.9 17:35:32 10° SW 17:41:34 79° NW 17:43:55 40° NNE
Meteor 2-15 4.3 17:36:34 10° S 17:42:37 70° E 17:45:42 31° NNE
Cosmos 1666 Rocket 4.5 17:39:07 10° NNW 17:43:26 49° W 17:47:40 10° SSW
USA 308 3.6 17:39:24 10° WNW 17:42:51 43° NNW 17:42:51 43° NNW
ARGOS 3.6 17:38:20 10° S 17:43:41 61° WSW 17:49:03 10° NNW
Cosmos 1833 Rocket 3.8 17:41:07 10° WSW 17:46:24 41° NW 17:49:48 20° N
Cosmos 1470 Rocket 4.4 17:42:10 10° N 17:45:00 39° N 17:45:00 39° N
Cosmos 2180 Rocket 4.4 17:42:43 10° S 17:49:05 88° W 17:55:25 10° N
Meteor 2-6 Rocket 4.1 17:45:06 10° S 17:50:53 88° W 17:53:25 35° N
Cosmos 1328 Rocket 3.7 17:46:34 10° SSW 17:50:52 74° W 17:50:52 74° W
ISS -1.9 17:47:55 10° W 17:50:10 30° WSW 17:50:10 30° WSW
Cosmos 2219 Rocket 4.1 17:50:36 10° N 17:52:22 16° N 17:52:22 16° N
SKYMED 2 4.4 17:53:45 33° NNW 17:55:16 48° WNW 17:59:26 10° SW
CZ-4 R/B 4.0 17:59:49 12° NNW 17:59:49 12° NNW 18:00:08 10° NNW
Lacrosse 5 rocket 2.6 17:54:06 10° NW 17:56:30 36° NW 17:56:30 36° NW
Landsat 5 4.3 18:00:26 48° WSW 18:00:26 48° WSW 18:03:37 10° SSW
Cosmos 2298 Rocket 3.9 17:55:16 10° NNW 18:00:27 84° NW 18:00:27 84° NW
Cosmos 1570 Rocket 4.1 17:56:28 10° SSW 18:01:42 75° WNW 18:02:05 71° NNW
GEOS 3 Rocket 3.8 18:02:08 55° S 18:03:06 68° SW 18:08:18 10° NW
CZ-2C R/B 3.4 17:59:22 17° N 18:03:11 49° WNW 18:08:08 10° SW
ATLAS CENTAUR R/B 2.9 17:56:34 10° WSW 18:03:24 50° NW 18:03:24 50° NW
Meteor 1-11 Rocket 3.6 18:02:24 10° NNW 18:07:51 84° NW 18:07:51 84° NW
Cosmos 1818 3.7 18:03:23 10° NW 18:08:51 71° SW 18:09:02 70° SW
Meteor 1-10 Rocket 4.2 18:03:09 10° SSW 18:08:57 86° WNW 18:09:02 85° NW
Cosmos 1814 Rocket 4.5 18:04:21 10° SW 18:09:30 57° WNW 18:10:08 53° NNW
USA 305 4.5 18:06:36 10° WNW 18:08:56 30° NW 18:08:56 30° NW
Cosmos 44 Rocket 3.9 18:07:42 10° NW 18:11:47 55° WNW 18:11:47 55° WNW
CZ-4C R/B 3.5 18:05:58 10° NW 18:13:03 57° WSW 18:20:10 14° SSE
Cosmos 2360 Rocket 3.6 18:19:36 10° NNW 18:22:14 27° NNW 18:22:14 27° NNW
Cosmos 2322 Rocket 3.4 18:38:38 10° NNW 18:41:55 36° NW 18:41:55 36° NW
USA 267 3.9 18:45:34 46° NNW 18:45:34 46° NNW 18:51:19 10° WNW
SL-16 R/B 3.7 18:55:48 10° NW 18:59:21 33° WNW 18:59:21 33° WNW
Cosmos 2082 Rocket 4.0 19:01:55 10° W 19:06:20 25° NW 19:06:20 25° NW
ATLAS 2AS CENTAUR R/B 4.3 19:17:08 10° NW 19:20:53 27° NNW 19:20:53 27° NNW
